North Las Vegas, NV

5:25 AM PST on February 14, 2016 (GMT -0800)
North Las Vegas

Weather History for KVGT - December, 2012

Change the Weather History Date:

Saturday, December 8, 2012

  Actual Average Record
Temperature  
Mean Temperature 54 °F 48 °F  
Max Temperature 64 °F 57 °F 66 °F (2014)
Min Temperature 44 °F 38 °F 29 °F (2013)
Degree Days  
Heating Degree Days 11 17  
Month to date heating degree days 129  
Since 1 July heating degree days 442  
Cooling Degree Days 0 0  
Month to date cooling degree days 0  
Year to date cooling degree days 3294  
Growing Degree Days 4 (Base 50)    
Moisture  
Dew Point 21 °F    
Average Humidity 29    
Maximum Humidity 41    
Minimum Humidity 18    
Precipitation  
Precipitation 0.00 in 0.01 in 0.02 in (2007)
Month to date precipitation 0.10  
Year to date precipitation 4.90  
Sea Level Pressure  
Sea Level Pressure 29.98 in    
Wind  
Wind Speed 6 mph (NNW)    
Max Wind Speed 15 mph    
Max Gust Speed -    
Visibility 10 miles    
Events      
T = Trace of Precipitation, MM = Missing Value Source: NWS Daily Summary

Daily Weather History Graph

Daily Weather History Graph

Search for Another Location

Airport or City:

Trip Planner

Search our weather history database for the weather conditions in past years. The results will help you decide how hot, cold, wet, or windy it might be!

Date:

Astronomy

Dec. 08, 2012 Rise Set
Actual Time 6:39 AM PST 4:26 PM PST
Civil Twilight 6:11 AM PST 4:54 PM PST
Nautical Twilight 5:39 AM PST 5:26 PM PST
Astronomical Twilight 5:08 AM PST 5:57 PM PST
Moon 1:16 AM PST (12/8) 12:51 PM PST (12/8)
Length of Visible Light 10h 43m
Length of Day
9h 46m
Waning Crescent, 27% of the Moon is Illuminated
Dec 8
Waning Crescent
Dec 13
New
Dec 19
First Quarter
Dec 28
Full
Jan 4
Last Quarter

Hourly Weather History & Observations

Time (PST) Temp. Windchill Dew Point Humidity Pressure Visibility Wind Dir Wind Speed Gust Speed Precip Events Conditions
12:53 AM 50.0 °F - 19.0 °F 29% 29.99 in 10.0 mi WNW 9.2 mph - N/A   Clear
1:53 AM 48.9 °F - 19.9 °F 32% 29.99 in 10.0 mi NW 9.2 mph - N/A   Clear
2:53 AM 45.0 °F 41.2 °F 18.0 °F 34% 29.99 in 10.0 mi NW 6.9 mph - N/A   Clear
3:53 AM 44.1 °F 42.5 °F 19.9 °F 38% 29.99 in 10.0 mi NNE 3.5 mph - N/A   Clear
4:53 AM 45.0 °F 43.5 °F 21.0 °F 39% 29.99 in 10.0 mi North 3.5 mph - N/A   Clear
5:53 AM 44.1 °F 41.5 °F 21.0 °F 40% 30.00 in 10.0 mi NW 4.6 mph - N/A   Clear
6:53 AM 44.1 °F 39.5 °F 19.9 °F 38% 30.01 in 10.0 mi WNW 8.1 mph - N/A   Clear
7:53 AM 48.0 °F - 19.9 °F 33% 30.01 in 10.0 mi WNW 5.8 mph - N/A   Clear
8:53 AM 51.1 °F - 21.0 °F 31% 30.01 in 10.0 mi Calm Calm - N/A   Clear
9:53 AM 53.1 °F - 21.0 °F 29% 30.03 in 10.0 mi East 5.8 mph - N/A   Clear
10:53 AM 55.0 °F - 19.0 °F 24% 30.01 in 10.0 mi East 3.5 mph - N/A   Clear
11:53 AM 59.0 °F - 19.0 °F 21% 29.97 in 10.0 mi Calm Calm - N/A   Clear
12:53 PM 62.1 °F - 17.1 °F 18% 29.96 in 10.0 mi Calm Calm - N/A   Clear
1:53 PM 63.0 °F - 19.0 °F 18% 29.94 in 10.0 mi ESE 4.6 mph - N/A   Clear
2:53 PM 64.0 °F - 19.9 °F 18% 29.93 in 10.0 mi ESE 4.6 mph - N/A   Clear
3:53 PM 62.1 °F - 19.9 °F 20% 29.94 in 10.0 mi ESE 4.6 mph - N/A   Clear
5:53 PM 55.9 °F - 19.9 °F 25% 29.96 in 10.0 mi Calm Calm - N/A   Clear
6:53 PM 52.0 °F - 24.1 °F 34% 29.97 in 10.0 mi NW 4.6 mph - N/A   Clear
7:53 PM 51.1 °F - 25.0 °F 36% 29.97 in 10.0 mi NW 3.5 mph - N/A   Clear
8:53 PM 48.9 °F - 26.1 °F 41% 29.98 in 10.0 mi Calm Calm - N/A   Clear
9:53 PM 50.0 °F - 24.1 °F 36% 29.98 in 10.0 mi West 6.9 mph - N/A   Clear
10:53 PM 59.0 °F - 19.0 °F 21% 29.97 in 10.0 mi NW 10.4 mph - N/A   Clear
11:53 PM 57.0 °F - 19.0 °F 23% 29.96 in 10.0 mi NNW 15.0 mph - N/A   Clear